Location: Be?chatów
(51.3665°N, 19.3745°E)
Time: 22:41:05
(UTC+00:00)

Okean O Rocket - Pass Details

Date: 19 May 2025
Orbit: 614 x 636 km, 98.0° (Epoch: 16 June)

Event Time Altitude Azimuth Distance (km) Brightness Sun altitude
Exits shadow 19:57:26 - 195° (SSW) 2,946 4.7 -10.4°
Rises 19:57:33 0° 195° (SSW) 2,906 4.7 -10.4°
Reaches altitude 10° 20:00:01 10° 208° (SSW) 2,000 3.9 -10.6°
Maximum altitude 20:03:42 26° 266° (W) 1,225 3.5 -11.0°
Drops below altitude 10° 20:07:24 10° 324° (NW) 2,003 5.8 -11.3°
Sets 20:09:53 0° 337° (NNW) 2,911 6.8 -11.6°
